Location: Mason Neck State Park
(38.6428°N, 77.1981°W)
Time: 06:33:04
(UTC-04:00)

ISS - Visible Passes

Search period start: 28 July 2016 00:00
Search period end: 07 August 2016 00:00
Orbit: 401 x 404 km, 51.6° (Epoch: 28 July)

Date Brightness Start Highest point End Pass type
(mag) Time Alt. Az. Time Alt. Az. Time Alt. Az.
28 Jul -0.8 03:08:08 22° NNE 03:08:26 22° NNE 03:11:03 10° E visible
28 Jul -3.1 04:41:51 10° WNW 04:44:59 44° SW 04:48:05 10° SSE visible
28 Jul -3.0 21:19:56 10° WSW 21:23:09 70° NW 21:26:24 10° NE visible
28 Jul 0.0 22:58:13 10° NW 23:00:05 14° NNW 23:01:57 10° NNE visible
29 Jul -0.5 22:04:24 10° WNW 22:06:54 20° NNW 22:09:24 10° NNE visible
30 Jul -1.3 21:10:50 10° W 21:13:47 31° NNW 21:16:45 10° NE visible
30 Jul 0.2 22:50:30 10° NNW 22:51:02 10° NNW 22:51:34 10° N visible
31 Jul -0.1 21:56:07 10° NW 21:57:46 13° NNW 21:59:24 10° NNE visible
01 Aug -0.4 21:02:12 10° WNW 21:04:33 18° NNW 21:06:54 10° NNE visible
03 Aug -0.2 20:54:00 10° NW 20:55:25 12° NNW 20:56:50 10° N visible
04 Aug -0.2 23:15:37 10° NNW 23:16:45 13° N 23:16:45 13° N visible
05 Aug -0.3 22:23:20 10° N 22:24:03 11° NNE 22:24:46 10° NNE visible
06 Aug -0.5 23:05:35 10° NNW 23:06:54 17° N 23:06:54 17° N visible
